Hourly Data Report for August 03, 2022

SANDSPIT
BRITISH COLUMBIA
Current Station Operator: NAVCAN

53°15'15.000" N
131°48'50.000" W
6.40 m
1057052
71111
YZP

Download Data

Hourly Data (August 2022)
Hourly Data Report for August 3, 2022
TIME
LST
Temp Definition
°C
Dew Point Definition
°C
Rel Hum Definition
%
Precip. Amount Definition
mm

Wind Dir Definition
10's deg

Wind Spd Definition
km/h
Visibility Definition
km
Stn Press Definition
kPa
Hmdx Definition


Wind Chill Definition


Weather Definition


00:00 13.7 10.0 78 0.0 26 18 16.1 101.27     LegendNANA
01:00 13.4 10.4 82 0.0 25 17 16.1 101.25     LegendNANA
02:00 13.4 10.1 80 0.0 25 17 16.1 101.20     LegendNANA
03:00 13.3 10.1 81 0.0 25 18 16.1 101.19     LegendNANA
04:00 13.1 9.9 81 0.0 25 15 16.1 101.13     LegendNANA
05:00 13.0 10.0 82 0.0 25 15 16.1 101.09     LegendNANA
06:00 13.1 9.8 80 0.0 24 9 16.1 101.05     LegendNANA
07:00 13.1 9.8 80 0.0 24 9 16.1 101.05     LegendNANA
08:00 13.5 10.2 80 0.0 26 13 16.1 101.01     LegendNANA
09:00 13.9 10.4 79 0.0 26 11 16.1 101.01     LegendNANA
10:00 13.3 10.9 85 0.2 26 15 16.1 101.02     Rain
11:00 13.3 11.7 90 0.5 27 11 16.1 101.02     Rain
12:00 14.2 11.5 84 0.2 27 5 16.1 101.02     LegendNANA
13:00 15.0 11.4 79 0.0 5 9 16.1 101.02     LegendNANA
14:00 14.8 11.2 79 0.0 36 5 16.1 101.04     LegendNANA
15:00 15.3 11.0 75 0.0 LegendMM 4 16.1 101.05     LegendNANA
16:00 15.0 11.3 78 0.0 9 8 16.1 101.06     LegendNANA
17:00 14.8 11.4 80 0.0 LegendMM 4 16.1 101.09     LegendNANA
18:00 14.3 11.5 83 0.2   0 16.1 101.10     Rain
19:00 14.2 11.9 86 0.2   0 16.1 101.09     LegendNANA
20:00 14.5 12.0 85 0.0 LegendMM 4 16.1 101.12     LegendNANA
21:00 14.2 11.6 84 0.0 29 8 16.1 101.19     LegendNANA
22:00 13.6 12.0 90 0.0 30 15 14.5 101.22     Rain
23:00 13.4 12.1 92 0.0 26 17 16.1 101.26     LegendNANA

Notes on Data Quality.

Legend

  • E = Estimated
  • M = Missing
  • NA = Not Available*
  • [empty] = Indicates an unobserved value
Date modified: